Location: Cortos
(40.7190°N, 4.5893°W)
Time: 19:52:56
(UTC+00:00)

Landsat 7 - Pass Details

Date: 05 July 2020
Orbit: 701 x 703 km, 98.1° (Epoch: 06 August)

Event Time Altitude Azimuth Distance (km) Brightness Sun altitude
Exits shadow 21:21:47 19° 158° (SSE) 1,630 5.1 -13.9°
Maximum altitude 21:25:10 75° 75° (ENE) 731 3.8 -14.3°
Drops below altitude 10° 21:29:56 10° 351° (N) 2,178 7.3 -14.9°
Sets 21:32:12 0° 350° (N) 3,100 8.2 -15.2°
